Location: Azul
(36.7830°S, 59.8500°W)
Time: 18:51:45
(UTC-03:00)

AO-109 - Pass Details

Date: 31 October 2021
Orbit: 474 x 522 km, 60.7° (Epoch: 06 December)

Event Time Altitude Azimuth Distance (km) Brightness Sun altitude
Rises 20:31:21 0° 347° (NNW) 2,579 ? -11.8°
Reaches altitude 10° 20:33:38 10° 357° (N) 1,713 ? -12.2°
Maximum altitude 20:37:06 32° 61° (ENE) 898 ? -12.8°
Drops below altitude 10° 20:40:38 10° 125° (SE) 1,761 ? -13.4°
Sets 20:43:00 0° 134° (SE) 2,664 ? -13.8°
